UAE9715 OERK-OMDW

Flight info

Callsign UAE9715
Flight time 1h 21m
Altitude 37000
Route RESAL T533 RAPMA DCT KUVSO DCT RIBOT M550 GOLGU M318 RURAL Q317 LORID
Aircraft B77L/H-SDE1E2E3FGHIJ2J3J4J5M1RWXY/LB1D1

Departure

Time 2026-04-21 12:26
Airport King Khalid International Airport (OERK)

Arrival

Time 2026-04-21 13:47
Airport Al Maktoum International Airport (OMDW)
Time Latitude Longitude Altitude Speed Heading
2026-04-21 11:54 24.97832 46.69343 2042 ft 0 kts 240°
2026-04-21 11:56 24.97832 46.69344 2042 ft 0 kts 240°
2026-04-21 12:00 24.97833 46.69344 2032 ft 0 kts 240°
2026-04-21 12:07 24.97833 46.69345 2032 ft 0 kts 240°
2026-04-21 12:16 24.97839 46.69357 2042 ft 4 kts 238°
2026-04-21 12:16 24.97855 46.69382 2042 ft 4 kts 231°
2026-04-21 12:16 24.97872 46.69403 2039 ft 4 kts 220°
2026-04-21 12:17 24.97894 46.69419 2042 ft 3 kts 190°
2026-04-21 12:17 24.97910 46.69418 2039 ft 0 kts 149°
2026-04-21 12:21 24.97904 46.69422 2042 ft 1 kts 149°
2026-04-21 12:21 24.97893 46.69429 2042 ft 2 kts 149°
2026-04-21 12:21 24.97876 46.69440 2042 ft 3 kts 149°
2026-04-21 12:21 24.97855 46.69453 2039 ft 4 kts 150°
2026-04-21 12:22 24.97829 46.69470 2040 ft 5 kts 150°
2026-04-21 12:22 24.97798 46.69490 2042 ft 5 kts 150°
2026-04-21 12:22 24.97763 46.69512 2042 ft 6 kts 150°
2026-04-21 12:22 24.97721 46.69538 2040 ft 8 kts 150°
2026-04-21 12:23 24.97666 46.69572 2042 ft 10 kts 150°
2026-04-21 12:23 24.97595 46.69616 2041 ft 13 kts 150°
2026-04-21 12:23 24.97511 46.69669 2040 ft 15 kts 150°
2026-04-21 12:23 24.97443 46.69753 2038 ft 16 kts 92°
2026-04-21 12:24 24.97488 46.69864 2042 ft 16 kts 59°
2026-04-21 12:24 24.97546 46.69973 2040 ft 16 kts 59°
2026-04-21 12:24 24.97601 46.70082 2042 ft 15 kts 60°
2026-04-21 12:24 24.97644 46.70186 2040 ft 15 kts 83°
2026-04-21 12:25 24.97593 46.70259 2042 ft 0 kts 149°
2026-04-21 12:25 24.97589 46.70262 2042 ft 1 kts 150°
2026-04-21 12:25 24.97579 46.70268 2040 ft 6 kts 150°
2026-04-21 12:25 24.97315 46.70435 2043 ft 87 kts 150°
2026-04-21 12:26 24.96570 46.70919 2039 ft 158 kts 144°
2026-04-21 12:26 24.95637 46.71599 2646 ft 159 kts 144°
2026-04-21 12:26 24.94567 46.72187 3052 ft 191 kts 147°
2026-04-21 12:26 24.93389 46.73048 3365 ft 217 kts 135°
2026-04-21 12:27 24.92198 46.74179 4058 ft 233 kts 135°
2026-04-21 12:27 24.90915 46.75407 4681 ft 254 kts 136°
2026-04-21 12:27 24.89572 46.76672 5676 ft 257 kts 139°
2026-04-21 12:27 24.88188 46.77960 6571 ft 266 kts 142°
2026-04-21 12:28 24.86664 46.79118 7485 ft 267 kts 154°
2026-04-21 12:28 24.84989 46.80062 8335 ft 276 kts 158°
2026-04-21 12:28 24.83273 46.80997 9397 ft 276 kts 159°
2026-04-21 12:28 24.81554 46.81958 10370 ft 280 kts 159°
2026-04-21 12:29 24.79753 46.82970 10888 ft 304 kts 160°
2026-04-21 12:29 24.77691 46.83818 11110 ft 331 kts 169°
2026-04-21 12:29 24.75386 46.84439 11700 ft 348 kts 172°
2026-04-21 12:29 24.72980 46.85036 12646 ft 357 kts 172°
2026-04-21 12:30 24.70528 46.85667 13680 ft 365 kts 172°
2026-04-21 12:30 24.68032 46.86339 14574 ft 374 kts 172°
2026-04-21 12:30 24.65484 46.87044 15431 ft 383 kts 172°
2026-04-21 12:30 24.62875 46.87781 16310 ft 392 kts 171°
2026-04-21 12:31 24.60243 46.88683 17212 ft 402 kts 168°
2026-04-21 12:31 24.57570 46.89714 18058 ft 411 kts 167°
2026-04-21 12:31 24.54861 46.90783 18808 ft 418 kts 166°
2026-04-21 12:31 24.52099 46.91880 19663 ft 423 kts 166°
2026-04-21 12:32 24.49325 46.92971 20501 ft 427 kts 166°
2026-04-21 12:32 24.46504 46.94064 21322 ft 433 kts 166°
2026-04-21 12:32 24.43631 46.95164 22075 ft 439 kts 166°
2026-04-21 12:32 24.40732 46.96268 22831 ft 445 kts 166°
2026-04-21 12:33 24.37788 46.97386 23563 ft 450 kts 166°
2026-04-21 12:33 24.34817 46.98514 24217 ft 454 kts 166°
2026-04-21 12:33 24.31817 46.99653 24866 ft 459 kts 166°
2026-04-21 12:33 24.28780 47.00806 25500 ft 464 kts 166°
2026-04-21 12:34 24.25698 47.01976 26139 ft 469 kts 166°
2026-04-21 12:34 24.22608 47.03149 26771 ft 474 kts 166°
2026-04-21 12:34 24.19467 47.04340 27399 ft 479 kts 167°
2026-04-21 12:34 24.16306 47.05541 28017 ft 484 kts 167°
2026-04-21 12:35 24.13112 47.06746 28641 ft 488 kts 167°
2026-04-21 12:35 24.09919 47.08147 29184 ft 501 kts 159°
2026-04-21 12:35 24.06871 47.10082 29754 ft 511 kts 153°
2026-04-21 12:35 24.03909 47.12184 30225 ft 517 kts 152°
2026-04-21 12:36 24.00866 47.14401 30602 ft 524 kts 152°
2026-04-21 12:36 23.97852 47.16580 30966 ft 529 kts 153°
2026-04-21 12:36 23.94738 47.18743 31410 ft 530 kts 154°
2026-04-21 12:36 23.91611 47.20884 31898 ft 533 kts 154°
2026-04-21 12:37 23.88464 47.23060 32418 ft 534 kts 154°
2026-04-21 12:37 23.85326 47.25226 32911 ft 536 kts 154°
2026-04-21 12:37 23.82158 47.27399 33406 ft 537 kts 155°
2026-04-21 12:37 23.78997 47.29566 33848 ft 539 kts 155°
2026-04-21 12:38 23.75804 47.31717 34325 ft 537 kts 156°
2026-04-21 12:38 23.72634 47.33856 34898 ft 535 kts 155°
2026-04-21 12:38 23.69488 47.36019 35494 ft 533 kts 155°
2026-04-21 12:38 23.66365 47.38170 36035 ft 531 kts 156°
2026-04-21 12:39 23.63232 47.40316 36516 ft 531 kts 156°
2026-04-21 12:39 23.60097 47.42450 36832 ft 534 kts 156°
2026-04-21 12:39 23.56924 47.44602 36781 ft 538 kts 156°
2026-04-21 12:40 23.50680 47.49018 36767 ft 539 kts 146°
2026-04-21 12:40 23.48106 47.52055 36787 ft 553 kts 129°
2026-04-21 12:40 23.46259 47.55767 36789 ft 562 kts 113°
2026-04-21 12:40 23.45322 47.59904 36788 ft 563 kts 96°
2026-04-21 12:41 23.44955 47.64145 36795 ft 563 kts 94°
2026-04-21 12:41 23.44323 47.72633 36774 ft 564 kts 94°
2026-04-21 12:42 23.43578 47.81141 36777 ft 564 kts 95°
2026-04-21 12:42 23.42732 47.89639 36774 ft 564 kts 95°
2026-04-21 12:43 23.41867 47.98122 36764 ft 562 kts 95°
2026-04-21 12:43 23.41050 48.06220 36773 ft 561 kts 95°
2026-04-21 12:44 23.40200 48.14666 36760 ft 561 kts 95°
2026-04-21 12:44 23.39352 48.23039 36764 ft 561 kts 95°
2026-04-21 12:45 23.38492 48.31470 36762 ft 560 kts 95°
2026-04-21 12:45 23.37827 48.39917 36757 ft 559 kts 91°
2026-04-21 12:46 23.37556 48.48369 36769 ft 559 kts 89°
2026-04-21 12:46 23.37305 48.56818 36762 ft 560 kts 90°
2026-04-21 12:47 23.36976 48.65281 36767 ft 560 kts 90°
2026-04-21 12:47 23.36613 48.73749 36761 ft 560 kts 90°
2026-04-21 12:48 23.36249 48.82229 36761 ft 561 kts 90°
2026-04-21 12:48 23.35886 48.90704 36743 ft 560 kts 90°
2026-04-21 12:49 23.35521 48.99164 36756 ft 560 kts 90°
2026-04-21 12:49 23.35162 49.07365 36758 ft 560 kts 90°
2026-04-21 12:50 23.34744 49.15807 36750 ft 560 kts 91°
2026-04-21 12:50 23.34292 49.24272 36753 ft 559 kts 91°
2026-04-21 12:51 23.33841 49.32710 36770 ft 559 kts 91°
2026-04-21 12:51 23.33393 49.41159 36764 ft 559 kts 91°
2026-04-21 12:52 23.32945 49.49554 36760 ft 559 kts 91°
2026-04-21 12:52 23.32491 49.57989 36751 ft 558 kts 91°
2026-04-21 12:53 23.32032 49.66409 36763 ft 557 kts 91°
2026-04-21 12:53 23.31569 49.74821 36767 ft 557 kts 91°
2026-04-21 12:54 23.31102 49.83233 36761 ft 557 kts 91°
2026-04-21 12:54 23.30631 49.91622 36766 ft 557 kts 91°
2026-04-21 12:55 23.30155 50.00020 36760 ft 557 kts 91°
2026-04-21 12:55 23.29691 50.08144 36763 ft 557 kts 91°
2026-04-21 12:56 23.29206 50.16551 36763 ft 557 kts 91°
2026-04-21 12:56 23.28716 50.24959 36742 ft 556 kts 91°
2026-04-21 12:57 23.28223 50.33331 36761 ft 555 kts 91°
2026-04-21 12:57 23.27726 50.41719 36757 ft 555 kts 91°
2026-04-21 12:58 23.27226 50.50084 36763 ft 554 kts 91°
2026-04-21 12:58 23.26721 50.58439 36762 ft 554 kts 91°
2026-04-21 12:59 23.26212 50.66803 36771 ft 554 kts 91°
2026-04-21 12:59 23.25698 50.75164 36764 ft 554 kts 91°
2026-04-21 13:00 23.25268 50.82112 36757 ft 554 kts 91°
2026-04-21 13:00 23.24746 50.90473 36764 ft 554 kts 91°
2026-04-21 13:01 23.24220 50.98812 36760 ft 553 kts 91°
2026-04-21 13:01 23.23709 51.06872 36762 ft 553 kts 91°
2026-04-21 13:02 23.23174 51.15223 36755 ft 553 kts 91°
2026-04-21 13:02 23.22365 51.27734 36753 ft 553 kts 91°
2026-04-21 13:03 23.21821 51.36063 36747 ft 553 kts 91°
2026-04-21 13:03 23.21272 51.44397 36748 ft 553 kts 91°
2026-04-21 13:04 23.20718 51.52739 36756 ft 553 kts 91°
2026-04-21 13:04 23.20162 51.61055 36755 ft 552 kts 91°
2026-04-21 13:05 23.19599 51.69394 36744 ft 552 kts 91°
2026-04-21 13:05 23.19033 51.77706 36740 ft 551 kts 91°
2026-04-21 13:06 23.18465 51.86006 36746 ft 551 kts 91°
2026-04-21 13:06 23.17891 51.94315 36735 ft 550 kts 91°
2026-04-21 13:07 23.17337 52.02279 36741 ft 550 kts 91°
2026-04-21 13:07 23.16756 52.10576 36742 ft 550 kts 91°
2026-04-21 13:08 23.16174 52.18810 36731 ft 550 kts 91°
2026-04-21 13:08 23.15585 52.27091 36732 ft 550 kts 91°
2026-04-21 13:09 23.15061 52.35382 36727 ft 548 kts 87°
2026-04-21 13:09 23.15755 52.43547 36749 ft 540 kts 74°
2026-04-21 13:10 23.17839 52.51283 36747 ft 528 kts 60°
2026-04-21 13:10 23.21272 52.58219 36761 ft 519 kts 52°
2026-04-21 13:11 23.24893 52.65034 36741 ft 522 kts 53°
2026-04-21 13:11 23.28454 52.71928 36744 ft 524 kts 53°
2026-04-21 13:12 23.32004 52.78850 36756 ft 524 kts 53°
2026-04-21 13:12 23.35561 52.85780 36749 ft 524 kts 53°
2026-04-21 13:13 23.39115 52.92704 36760 ft 524 kts 53°
2026-04-21 13:13 23.42693 52.99610 36759 ft 522 kts 52°
2026-04-21 13:14 23.46198 53.06145 36761 ft 521 kts 52°
2026-04-21 13:14 23.49862 53.12955 36755 ft 520 kts 52°
2026-04-21 13:15 23.53497 53.19761 36759 ft 520 kts 52°
2026-04-21 13:15 23.57121 53.26575 36771 ft 519 kts 52°
2026-04-21 13:16 23.60741 53.33391 36765 ft 519 kts 52°
2026-04-21 13:16 23.64349 53.40192 36766 ft 518 kts 52°
2026-04-21 13:17 23.67955 53.46998 36767 ft 518 kts 52°
2026-04-21 13:17 23.71560 53.53808 36764 ft 518 kts 52°
2026-04-21 13:18 23.75178 53.60612 36788 ft 518 kts 52°
2026-04-21 13:18 23.78794 53.67413 36775 ft 519 kts 52°
2026-04-21 13:19 23.82388 53.74191 36780 ft 519 kts 53°
2026-04-21 13:19 23.85947 53.80926 36358 ft 504 kts 53°
2026-04-21 13:20 23.87697 53.84239 35728 ft 503 kts 54°
2026-04-21 13:20 23.89455 53.87542 35115 ft 502 kts 54°
2026-04-21 13:20 23.91217 53.90874 34603 ft 498 kts 55°
2026-04-21 13:20 23.92933 53.94134 34194 ft 492 kts 56°
2026-04-21 13:21 23.94606 53.97324 33812 ft 486 kts 56°
2026-04-21 13:21 23.96193 54.00339 33358 ft 481 kts 57°
2026-04-21 13:21 23.97872 54.03514 32901 ft 475 kts 57°
2026-04-21 13:21 23.99495 54.06592 32442 ft 470 kts 57°
2026-04-21 13:22 24.01110 54.09679 31945 ft 467 kts 58°
2026-04-21 13:22 24.02708 54.12766 31441 ft 463 kts 58°
2026-04-21 13:22 24.04278 54.15815 30980 ft 460 kts 59°
2026-04-21 13:22 24.05846 54.18845 30499 ft 456 kts 59°
2026-04-21 13:23 24.07403 54.21860 30047 ft 452 kts 59°
2026-04-21 13:23 24.08939 54.24839 29566 ft 449 kts 60°
2026-04-21 13:23 24.10467 54.27803 29078 ft 444 kts 59°
2026-04-21 13:23 24.11977 54.30731 28564 ft 440 kts 59°
2026-04-21 13:24 24.13478 54.33645 28012 ft 438 kts 59°
2026-04-21 13:24 24.14972 54.36543 27481 ft 436 kts 59°
2026-04-21 13:24 24.16459 54.39433 26973 ft 434 kts 59°
2026-04-21 13:24 24.17939 54.42309 26488 ft 432 kts 59°
2026-04-21 13:25 24.19409 54.45165 26013 ft 430 kts 59°
2026-04-21 13:25 24.20864 54.47997 25555 ft 427 kts 59°
2026-04-21 13:25 24.22336 54.50823 25101 ft 425 kts 56°
2026-04-21 13:25 24.24083 54.53417 24635 ft 420 kts 46°
2026-04-21 13:26 24.26124 54.55671 24207 ft 416 kts 38°
2026-04-21 13:26 24.28435 54.57538 23794 ft 408 kts 23°
2026-04-21 13:26 24.31095 54.58388 23348 ft 393 kts 358°
2026-04-21 13:26 24.33726 54.58006 22885 ft 377 kts 336°
2026-04-21 13:27 24.36138 54.56961 22473 ft 371 kts 334°
2026-04-21 13:27 24.38575 54.56018 22018 ft 371 kts 339°
2026-04-21 13:27 24.41060 54.55282 21556 ft 370 kts 342°
2026-04-21 13:27 24.43585 54.54694 21125 ft 369 kts 345°
2026-04-21 13:28 24.46103 54.54191 20711 ft 367 kts 346°
2026-04-21 13:28 24.48601 54.53714 20287 ft 364 kts 346°
2026-04-21 13:28 24.51089 54.53238 19868 ft 361 kts 346°
2026-04-21 13:28 24.53559 54.52807 19504 ft 358 kts 347°
2026-04-21 13:29 24.55928 54.52435 19155 ft 354 kts 347°
2026-04-21 13:29 24.58372 54.52056 18756 ft 352 kts 347°
2026-04-21 13:29 24.60788 54.51679 18326 ft 350 kts 347°
2026-04-21 13:29 24.63184 54.51299 17894 ft 348 kts 347°
2026-04-21 13:30 24.65574 54.50916 17392 ft 346 kts 347°
2026-04-21 13:30 24.67955 54.50534 16856 ft 346 kts 348°
2026-04-21 13:30 24.70342 54.50253 16269 ft 347 kts 357°
2026-04-21 13:30 24.72747 54.50709 15637 ft 357 kts 17°
2026-04-21 13:31 24.74964 54.51952 15141 ft 359 kts 30°
2026-04-21 13:31 24.77025 54.53437 14707 ft 357 kts 32°
2026-04-21 13:31 24.79104 54.54980 14281 ft 356 kts 32°
2026-04-21 13:31 24.81153 54.56490 13827 ft 354 kts 32°
2026-04-21 13:32 24.83211 54.57982 13363 ft 353 kts 32°
2026-04-21 13:32 24.85238 54.59442 12931 ft 350 kts 32°
2026-04-21 13:32 24.87266 54.60893 12804 ft 337 kts 31°
2026-04-21 13:32 24.89193 54.62275 12703 ft 323 kts 32°
2026-04-21 13:33 24.91036 54.63604 12554 ft 313 kts 32°
2026-04-21 13:33 24.92835 54.64925 12211 ft 308 kts 36°
2026-04-21 13:33 24.94340 54.66560 11698 ft 310 kts 50°
2026-04-21 13:33 24.95651 54.68442 11298 ft 309 kts 53°
2026-04-21 13:34 24.96756 54.70424 10874 ft 303 kts 71°
2026-04-21 13:34 24.97056 54.72706 10416 ft 301 kts 94°
2026-04-21 13:34 24.96856 54.74989 10072 ft 298 kts 98°
2026-04-21 13:34 24.96594 54.77243 9729 ft 296 kts 99°
2026-04-21 13:35 24.96330 54.79499 9328 ft 295 kts 98°
2026-04-21 13:35 24.96079 54.81726 8953 ft 293 kts 98°
2026-04-21 13:35 24.95834 54.83948 8590 ft 290 kts 98°
2026-04-21 13:35 24.95595 54.86146 8206 ft 289 kts 97°
2026-04-21 13:36 24.95231 54.88292 7722 ft 282 kts 113°
2026-04-21 13:36 24.94269 54.90172 7193 ft 283 kts 124°
2026-04-21 13:36 24.93216 54.91998 6832 ft 281 kts 123°
2026-04-21 13:36 24.92191 54.93816 6563 ft 276 kts 123°
2026-04-21 13:37 24.91195 54.95612 6301 ft 269 kts 123°
2026-04-21 13:37 24.90225 54.97377 5981 ft 266 kts 122°
2026-04-21 13:37 24.89279 54.99108 5631 ft 264 kts 122°
2026-04-21 13:37 24.88428 55.00648 5327 ft 262 kts 122°
2026-04-21 13:38 24.87487 55.02352 4979 ft 261 kts 123°
2026-04-21 13:38 24.86553 55.04052 4658 ft 257 kts 122°
2026-04-21 13:38 24.85630 55.05730 4301 ft 256 kts 122°
2026-04-21 13:38 24.84711 55.07396 3951 ft 254 kts 121°
2026-04-21 13:39 24.83799 55.09051 3604 ft 253 kts 121°
2026-04-21 13:39 24.82889 55.10702 3334 ft 248 kts 120°
2026-04-21 13:39 24.82008 55.12297 3162 ft 240 kts 120°
2026-04-21 13:39 24.81160 55.13834 3053 ft 228 kts 120°
2026-04-21 13:40 24.80348 55.15293 2987 ft 222 kts 120°
2026-04-21 13:40 24.79534 55.16758 2994 ft 227 kts 119°
2026-04-21 13:40 24.78690 55.18281 3000 ft 231 kts 120°
2026-04-21 13:40 24.77862 55.19771 2973 ft 231 kts 120°
2026-04-21 13:41 24.77017 55.21293 2963 ft 227 kts 120°
2026-04-21 13:41 24.76209 55.22745 2973 ft 223 kts 119°
2026-04-21 13:41 24.75392 55.24222 2970 ft 225 kts 120°
2026-04-21 13:41 24.74566 55.25703 2991 ft 229 kts 119°
2026-04-21 13:42 24.73757 55.27192 2973 ft 230 kts 115°
2026-04-21 13:42 24.73491 55.28921 2923 ft 245 kts 76°
2026-04-21 13:42 24.74345 55.30669 3008 ft 267 kts 45°
2026-04-21 13:42 24.75848 55.31672 2961 ft 244 kts 14°
2026-04-21 13:43 24.77460 55.31613 2860 ft 230 kts 341°
2026-04-21 13:43 24.78758 55.30723 2655 ft 210 kts 325°
2026-04-21 13:43 24.79890 55.29796 2489 ft 197 kts 327°
2026-04-21 13:43 24.81018 55.28897 2372 ft 201 kts 327°
2026-04-21 13:44 24.82128 55.28006 2210 ft 193 kts 327°
2026-04-21 13:44 24.83179 55.27156 2096 ft 181 kts 326°
2026-04-21 13:44 24.84007 55.26134 1812 ft 174 kts 310°
2026-04-21 13:44 24.84681 55.25083 1573 ft 161 kts 308°
2026-04-21 13:45 24.85073 55.24403 1430 ft 151 kts 307°
2026-04-21 13:45 24.85617 55.23427 1285 ft 151 kts 306°
2026-04-21 13:45 24.86163 55.22440 1093 ft 148 kts 306°
2026-04-21 13:45 24.86668 55.21519 901 ft 139 kts 308°
2026-04-21 13:46 24.87184 55.20588 742 ft 148 kts 303°
2026-04-21 13:46 24.87715 55.19620 564 ft 147 kts 302°
2026-04-21 13:46 24.88231 55.18682 360 ft 141 kts 303°
2026-04-21 13:46 24.88743 55.17754 219 ft 142 kts 304°
2026-04-21 13:47 24.89239 55.16866 162 ft 126 kts 301°
2026-04-21 13:47 24.89639 55.16154 162 ft 91 kts 301°
2026-04-21 13:47 24.89891 55.15697 161 ft 44 kts 301°
2026-04-21 13:47 24.89989 55.15410 162 ft 29 kts 270°
2026-04-21 13:48 24.89996 55.15189 164 ft 29 kts 271°
2026-04-21 13:48 24.90033 55.15033 164 ft 18 kts 297°
2026-04-21 13:48 24.90003 55.14951 163 ft 11 kts 212°
2026-04-21 13:48 24.89936 55.14905 163 ft 12 kts 212°
2026-04-21 13:49 24.89851 55.14848 163 ft 16 kts 211°
2026-04-21 13:49 24.89752 55.14783 164 ft 17 kts 211°
2026-04-21 13:49 24.89651 55.14713 164 ft 17 kts 211°
2026-04-21 13:49 24.89549 55.14646 164 ft 17 kts 211°
2026-04-21 13:50 24.89472 55.14595 165 ft 6 kts 212°
2026-04-21 13:50 24.89453 55.14553 165 ft 7 kts 273°
2026-04-21 13:50 24.89483 55.14510 165 ft 8 kts 307°
2026-04-21 13:50 24.89495 55.14490 165 ft 0 kts 303°
2026-04-21 14:00 24.89495 55.14491 159 ft 0 kts 303°
2026-04-21 14:14 24.89486 55.14507 162 ft 3 kts 303°
2026-04-21 14:14 24.89471 55.14531 165 ft 3 kts 303°
2026-04-21 14:14 24.89460 55.14549 165 ft 3 kts 303°
2026-04-21 14:15 24.89454 55.14561 165 ft 8 kts 307°
2026-04-21 14:15 24.89444 55.14589 163 ft 16 kts 29°
2026-04-21 14:15 24.89539 55.14644 164 ft 16 kts 24°
2026-04-21 14:15 24.89610 55.14686 164 ft 16 kts 30°
2026-04-21 14:16 24.89701 55.14748 164 ft 16 kts 40°
2026-04-21 14:16 24.89707 55.14830 166 ft 16 kts 118°
2026-04-21 14:16 24.89653 55.14931 164 ft 16 kts 121°
2026-04-21 14:16 24.89596 55.15033 164 ft 16 kts 121°
2026-04-21 14:17 24.89540 55.15134 164 ft 16 kts 121°
2026-04-21 14:17 24.89484 55.15236 164 ft 16 kts 121°
2026-04-21 14:17 24.89427 55.15339 164 ft 16 kts 121°
2026-04-21 14:17 24.89371 55.15440 164 ft 16 kts 121°
2026-04-21 14:18 24.89315 55.15541 164 ft 16 kts 121°
2026-04-21 14:18 24.89259 55.15643 164 ft 16 kts 121°
2026-04-21 14:18 24.89202 55.15747 164 ft 16 kts 121°
2026-04-21 14:18 24.89145 55.15848 164 ft 16 kts 121°
2026-04-21 14:19 24.89090 55.15948 163 ft 16 kts 121°
2026-04-21 14:19 24.89033 55.16051 166 ft 16 kts 121°
2026-04-21 14:19 24.88978 55.16152 164 ft 16 kts 121°
2026-04-21 14:19 24.88921 55.16254 164 ft 15 kts 121°
2026-04-21 14:20 24.88864 55.16357 164 ft 16 kts 121°
2026-04-21 14:20 24.88808 55.16458 164 ft 15 kts 121°
2026-04-21 14:20 24.88751 55.16560 164 ft 16 kts 121°
2026-04-21 14:20 24.88695 55.16662 164 ft 16 kts 121°
2026-04-21 14:21 24.88639 55.16764 164 ft 16 kts 121°
2026-04-21 14:21 24.88583 55.16866 164 ft 16 kts 121°
2026-04-21 14:21 24.88526 55.16968 164 ft 16 kts 121°
2026-04-21 14:21 24.88470 55.17069 164 ft 15 kts 121°
2026-04-21 14:22 24.88428 55.17145 164 ft 16 kts 121°
2026-04-21 14:22 24.88372 55.17247 164 ft 16 kts 121°
2026-04-21 14:22 24.88316 55.17349 164 ft 16 kts 121°
2026-04-21 14:22 24.88261 55.17451 164 ft 16 kts 121°
2026-04-21 14:23 24.88205 55.17553 164 ft 16 kts 121°
2026-04-21 14:23 24.88149 55.17655 164 ft 16 kts 122°
2026-04-21 14:23 24.88105 55.17729 164 ft 16 kts 123°
2026-04-21 14:23 24.88045 55.17828 164 ft 16 kts 123°
2026-04-21 14:24 24.87988 55.17929 164 ft 16 kts 122°
2026-04-21 14:24 24.87931 55.18031 164 ft 16 kts 121°
2026-04-21 14:24 24.87889 55.18106 164 ft 16 kts 122°
2026-04-21 14:24 24.87829 55.18204 165 ft 16 kts 124°
2026-04-21 14:25 24.87799 55.18258 165 ft 10 kts 108°
2026-04-21 14:25 24.87783 55.18242 167 ft 7 kts 216°
2026-04-21 14:25 24.87747 55.18216 165 ft 7 kts 210°
2026-04-21 14:25 24.87729 55.18205 165 ft 0 kts 209°
2026-04-21 14:31 24.87729 55.18206 165 ft 0 kts 209°